User: anonymous   Login
Location: Helsinki
(60.1699°N, 24.9384°E)
Time: 20:16:04
(UTC+03:00)
Language:

ISS - Orbit

View from above orbital plane
View from above orbital plane
View from above satellite
View from above satellite

Ground track
Ground track

The orbit data is extracted from the following two-line orbital elements,

1 25544U 98067A   23151.45322602  .00018605  00000-0  32920-3 0  9995
2 25544  51.6408  51.4928 0005626  37.0943 118.6565 15.50332720399191
Epoch (UTC): 31 May 2023 10:52:38
Eccentricity: 0.0005626
inclination: 51.6408°
perigee height: 412 km
apogee height: 419 km
right ascension of ascending node: 51.4928°
argument of perigee: 37.0943°
revolutions per day: 15.50332720
mean anomaly at epoch: 118.6565°
orbit number at epoch: 39919

The dashed part of the orbit path shows where the satellite is in the earth's shadow,  

DLR